EW6308 Weather Reports


Display with metric or nautical units.
time (UTC)temp
F
wind
direction
speed
MPH
gust
MPH
rain 1hr
in
rain 24hr
in
rain mn
in
humidity
%
barometer
mb
20260506073403 75 133 3.0 4.0 0.00 0.00 0.00 90 1010.3
20260506072859 75 193 4.0 7.0 0.00 0.00 0.00 90 1010.4
20260506072357 75 205 6.0 7.0 0.00 0.00 0.00 90 1010.7
20260506071854 75 213 3.0 6.0 0.00 0.00 0.00 91 1010.7
20260506071352 75 215 4.0 7.0 0.00 0.00 0.00 91 1010.6
20260506070849 75 202 4.0 6.0 0.00 0.00 0.00 91 1010.7
20260506070346 75 154 3.0 7.0 0.00 0.00 0.00 91 1010.7
20260506062323 74 111 3.0 7.0 0.00 0.00 0.00 91 1010.4
20260506061819 74 150 5.0 8.0 0.00 0.00 0.00 91 1010.4
20260506061316 74 160 1.0 4.0 0.00 0.00 0.00 91 1010.3
20260506060814 74 211 1.0 2.0 0.00 0.00 0.00 91 1010.6
20260506060312 74 158 3.0 8.0 0.00 0.00 0.00 91 1010.5
20260506051243 75 198 7.0 8.0 0.00 0.00 0.00 89 1009.9
20260506050741 75 179 4.0 8.0 0.00 0.00 0.00 89 1010.0
20260506050238 75 207 3.0 7.0 0.00 0.00 0.00 89 1010.1
20260506044729 76 188 2.0 7.0 0.00 0.00 0.00 88 1009.7
20260506044226 76 187 5.0 8.0 0.00 0.00 0.00 88 1009.7
20260506043724 76 224 5.0 9.0 0.00 0.00 0.00 88 1009.6
20260506043221 76 246 5.0 8.0 0.00 0.00 0.00 88 1009.6
20260506042720 76 231 2.0 7.0 0.00 0.00 0.00 87 1009.7
20260506042218 76 197 6.0 8.0 0.00 0.00 0.00 87 1009.7
20260506041716 76 221 6.0 7.0 0.00 0.00 0.00 87 1009.7
20260506041213 76 227 2.0 7.0 0.00 0.00 0.00 87 1009.6
20260506040710 76 181 2.0 6.0 0.00 0.00 0.00 87 1009.9
20260506040207 76 186 4.0 8.0 0.00 0.00 0.00 87 1009.7
20260506035704 76 188 3.0 4.0 0.00 0.00 0.00 87 1009.6
20260506035201 76 212 5.0 6.0 0.00 0.00 0.00 86 1009.5
20260506034657 76 140 3.0 4.0 0.00 0.00 0.00 86 1009.5
20260506034155 76 191 3.0 7.0 0.00 0.00 0.00 86 1009.4
20260506033652 76 168 2.0 7.0 0.00 0.00 0.00 85 1009.2
20260506033149 76 168 4.0 6.0 0.00 0.00 0.00 85 1009.4
20260506032646 76 156 3.0 7.0 0.00 0.00 0.00 85 1009.3
20260506032143 76 114 2.0 7.0 0.00 0.00 0.00 85 1009.1
20260506031640 77 190 2.0 6.0 0.00 0.00 0.00 85 1008.7
20260506031136 77 200 3.0 7.0 0.00 0.00 0.00 84 1008.7
20260506030636 77 191 3.0 8.0 0.00 0.00 0.00 84 1008.6
20260506030132 77 173 4.0 7.0 0.00 0.00 0.00 83 1008.4
20260506025629 77 226 3.0 6.0 0.00 0.00 0.00 83 1008.7
20260506025125 77 169 4.0 8.0 0.00 0.00 0.00 83 1008.2
20260506024623 77 155 3.0 4.0 0.00 0.00 0.00 82 1008.2
20260506024118 77 196 3.0 8.0 0.00 0.00 0.00 82 1008.2
20260506023615 78 192 6.0 8.0 0.00 0.00 0.00 81 1008.2
20260506023112 78 161 2.0 7.0 0.00 0.00 0.00 81 1008.0
20260506022610 78 176 4.0 7.0 0.00 0.00 0.00 81 1008.0
20260506022107 78 193 3.0 9.0 0.00 0.00 0.00 80 1008.0
20260506021605 78 207 6.0 9.0 0.00 0.00 0.00 80 1008.0
20260506021101 78 206 4.0 7.0 0.00 0.00 0.00 80 1007.9
20260506020559 78 146 2.0 4.0 0.00 0.00 0.00 80 1007.9
20260506020056 78 167 4.0 6.0 0.00 0.00 0.00 79 1008.0
20260506015554 79 181 5.0 7.0 0.00 0.00 0.00 79 1007.7
20260506015050 79 181 4.0 7.0 0.00 0.00 0.00 79 1007.8
20260506014548 79 205 3.0 4.0 0.00 0.00 0.00 79 1007.8
20260506014043 79 192 6.0 7.0 0.00 0.00 0.00 78 1007.6
20260506013542 79 220 3.0 8.0 0.00 0.00 0.00 78 1007.7
20260506013038 79 167 3.0 6.0 0.00 0.00 0.00 77 1007.6
20260506012534 80 178 5.0 9.0 0.00 0.00 0.00 77 1007.6
20260506012031 80 209 4.0 8.0 0.00 0.00 0.00 77 1007.5
20260506011529 80 200 6.0 9.0 0.00 0.00 0.00 77 1007.4
20260506011025 80 153 4.0 8.0 0.00 0.00 0.00 77 1007.4
20260506010525 80 155 3.0 6.0 0.00 0.00 0.00 76 1007.5
20260506010020 80 217 5.0 8.0 0.00 0.00 0.00 76 1007.4
20260506005518 80 222 6.0 9.0 0.00 0.00 0.00 75 1007.2
20260506005013 81 196 5.0 8.0 0.00 0.00 0.00 75 1007.4
20260506004511 81 192 4.0 8.0 0.00 0.00 0.00 75 1007.3
20260506004008 81 177 3.0 8.0 0.00 0.00 0.00 75 1007.2
20260506003504 81 181 10.0 14.0 0.00 0.00 0.00 74 1007.2
20260506003000 82 176 9.0 11.0 0.00 0.00 0.00 74 1007.4
20260506002456 82 179 3.0 8.0 0.00 0.00 0.00 73 1007.4
20260506001952 82 168 5.0 8.0 0.00 0.00 0.00 72 1007.5
20260506001449 82 187 4.0 9.0 0.00 0.00 0.00 72 1007.5
20260506000946 82 195 5.0 15.0 0.00 0.00 0.00 71 1007.4
20260506000445 82 199 4.0 10.0 0.00 0.00 0.00 71 1007.4
20260505235940 82 191 8.0 11.0 0.00 0.00 0.00 71 1007.3
20260505235438 83 224 5.0 10.0 0.00 0.00 0.00 72 1007.4
20260505234935 83 218 7.0 11.0 0.00 0.00 0.00 71 1007.4
20260505234432 83 206 10.0 13.0 0.00 0.00 0.00 70 1007.2
20260505233929 83 147 8.0 10.0 0.00 0.00 0.00 70 1007.2
20260505233427 83 167 4.0 6.0 0.00 0.00 0.00 71 1007.2
20260505232924 83 208 6.0 10.0 0.00 0.00 0.00 70 1007.2
20260505232422 83 207 6.0 13.0 0.00 0.00 0.00 70 1007.2
20260505231918 83 177 6.0 11.0 0.00 0.00 0.00 70 1007.1
20260505231416 83 234 9.0 11.0 0.00 0.00 0.00 69 1007.1
20260505230914 83 189 6.0 17.0 0.00 0.00 0.00 69 1007.0
20260505230412 83 193 8.0 15.0 0.00 0.00 0.00 69 1006.9
20260505225907 84 127 3.0 8.0 0.00 0.00 0.00 69 1007.1
20260505225405 83 170 5.0 14.0 0.00 0.00 0.00 68 1007.1
20260505224900 83 180 15.0 19.0 0.00 0.00 0.00 69 1007.1
20260505224358 83 205 5.0 17.0 0.00 0.00 0.00 69 1007.0
20260505223854 83 177 6.0 9.0 0.00 0.00 0.00 70 1007.0
20260505223351 83 178 9.0 11.0 0.00 0.00 0.00 69 1006.8
20260505222847 83 203 9.0 16.0 0.00 0.00 0.00 68 1006.8
20260505222344 83 174 6.0 14.0 0.00 0.00 0.00 69 1006.7
20260505221841 83 191 9.0 17.0 0.00 0.00 0.00 68 1006.8
20260505221338 83 202 11.0 17.0 0.00 0.00 0.00 68 1007.0
20260505220835 83 198 9.0 15.0 0.00 0.00 0.00 69 1007.1
20260505220331 83 194 6.0 15.0 0.00 0.00 0.00 70 1007.1
20260505215830 83 242 4.0 11.0 0.00 0.00 0.00 69 1007.2
20260505215327 83 174 12.0 15.0 0.00 0.00 0.00 68 1007.0
20260505214825 84 207 14.0 17.0 0.00 0.00 0.00 67 1007.3
20260505214322 83 196 4.0 10.0 0.00 0.00 0.00 70 1007.2
20260505213819 84 212 10.0 13.0 0.00 0.00 0.00 68 1007.4
20260505213317 84 159 8.0 10.0 0.00 0.00 0.00 68 1007.5
20260505212813 84 206 3.0 10.0 0.00 0.00 0.00 69 1007.6
20260505212310 84 150 8.0 9.0 0.00 0.00 0.00 67 1007.4
20260505211806 83 201 4.0 8.0 0.00 0.00 0.00 69 1007.6
20260505211304 83 131 6.0 14.0 0.00 0.00 0.00 68 1007.6
20260505210800 84 191 7.0 11.0 0.00 0.00 0.00 69 1007.7
20260505210257 84 226 9.0 11.0 0.00 0.00 0.00 68 1007.8
20260505205754 84 183 9.0 16.0 0.00 0.00 0.00 68 1008.0
20260505205253 84 249 6.0 16.0 0.00 0.00 0.00 69 1008.1
20260505204749 84 227 4.0 11.0 0.00 0.00 0.00 69 1008.0
20260505204247 83 203 5.0 11.0 0.00 0.00 0.00 69 1008.2
20260505203744 84 189 11.0 13.0 0.00 0.00 0.00 68 1008.1
20260505203241 85 199 9.0 11.0 0.00 0.00 0.00 67 1008.2
20260505202736 84 205 4.0 9.0 0.00 0.00 0.00 68 1008.1
20260505202233 83 227 5.0 16.0 0.00 0.00 0.00 69 1008.1
20260505201729 84 206 11.0 15.0 0.00 0.00 0.00 67 1008.1
20260505201227 83 208 7.0 11.0 0.00 0.00 0.00 69 1008.1
20260505200725 83 218 9.0 17.0 0.00 0.00 0.00 70 1008.0
20260505200222 84 221 9.0 17.0 0.00 0.00 0.00 67 1008.2
20260505195717 83 94 6.0 11.0 0.00 0.00 0.00 70 1008.1
20260505195215 83 174 13.0 17.0 0.00 0.00 0.00 67 1008.3
20260505194712 83 189 11.0 15.0 0.00 0.00 0.00 68 1008.2
20260505194209 83 200 4.0 9.0 0.00 0.00 0.00 68 1008.4
20260505193704 83 217 7.0 15.0 0.00 0.00 0.00 67 1008.4
20260505193202 82 174 3.0 14.0 0.00 0.00 0.00 70 1008.5
20260505192700 83 234 5.0 15.0 0.00 0.00 0.00 69 1008.5
20260505192158 82 161 6.0 9.0 0.00 0.00 0.00 70 1008.5
20260505191656 83 210 12.0 17.0 0.00 0.00 0.00 68 1008.5
20260505191154 83 213 7.0 15.0 0.00 0.00 0.00 69 1008.5
20260505190649 83 182 7.0 15.0 0.00 0.00 0.00 69 1008.6
20260505190149 82 153 12.0 16.0 0.00 0.00 0.00 70 1008.4
20260505185646 81 157 6.0 18.0 0.00 0.00 0.00 72 1008.5
20260505185143 82 176 13.0 18.0 0.00 0.00 0.00 70 1008.4
20260505184639 82 213 8.0 17.0 0.00 0.00 0.00 71 1008.6
20260505184136 82 152 15.0 18.0 0.00 0.00 0.00 70 1008.6
20260505183633 82 221 7.0 15.0 0.00 0.00 0.00 71 1008.7
20260505183131 82 108 5.0 17.0 0.00 0.00 0.00 70 1008.8
20260505182627 82 177 9.0 14.0 0.00 0.00 0.00 70 1009.1
20260505182124 83 183 11.0 15.0 0.00 0.00 0.00 68 1008.9
20260505181620 82 184 4.0 14.0 0.00 0.00 0.00 71 1009.0
20260505181118 82 207 6.0 16.0 0.00 0.00 0.00 70 1009.2
20260505180614 82 213 5.0 14.0 0.00 0.00 0.00 70 1009.0
20260505180111 82 180 11.0 16.0 0.00 0.00 0.00 69 1009.3
20260505175607 82 204 11.0 18.0 0.00 0.00 0.00 68 1009.3
20260505175104 81 211 9.0 14.0 0.00 0.00 0.00 69 1009.3
20260505174600 80 175 9.0 15.0 0.00 0.00 0.00 71 1009.3
20260505174056 80 118 6.0 18.0 0.00 0.00 0.00 71 1009.6
20260505173553 79 161 7.0 14.0 0.00 0.00 0.00 74 1009.7
20260505173050 79 192 8.0 10.0 0.00 0.00 0.00 73 1009.7
20260505172548 79 203 4.0 17.0 0.00 0.00 0.00 74 1009.6
20260505172044 79 185 11.0 15.0 0.00 0.00 0.00 73 1009.8
20260505171539 79 214 9.0 16.0 0.00 0.00 0.00 74 1009.8
20260505171036 78 176 11.0 14.0 0.00 0.00 0.00 75 1009.6
20260505170533 78 212 12.0 19.0 0.00 0.00 0.00 75 1009.6
20260505170029 78 229 7.0 14.0 0.00 0.00 0.00 76 1009.7
20260505165525 78 157 4.0 10.0 0.00 0.00 0.00 76 1009.7
20260505165020 78 250 5.0 10.0 0.00 0.00 0.00 76 1009.6
20260505164517 78 204 8.0 11.0 0.00 0.00 0.00 77 1009.7
20260505164015 78 166 6.0 15.0 0.00 0.00 0.00 77 1009.6
20260505163513 77 198 7.0 9.0 0.00 0.00 0.00 77 1009.7
20260505163010 77 170 12.0 17.0 0.00 0.00 0.00 78 1009.7
20260505162503 77 212 8.0 13.0 0.00 0.00 0.00 78 1009.7
20260505162000 76 253 7.0 16.0 0.00 0.00 0.00 79 1009.6
20260505161456 76 209 9.0 15.0 0.00 0.00 0.00 80 1009.7
20260505160953 76 144 8.0 14.0 0.00 0.00 0.00 80 1009.9
20260505160452 76 214 7.0 13.0 0.00 0.00 0.00 81 1009.8
20260505152928 74 165 7.0 14.0 0.00 0.00 0.00 83 1010.0
20260505152426 74 215 11.0 17.0 0.00 0.00 0.00 83 1009.8
20260505151925 74 190 3.0 15.0 0.00 0.00 0.00 83 1009.8
20260505151421 74 213 11.0 16.0 0.00 0.00 0.00 83 1009.9
20260505150919 74 181 5.0 14.0 0.00 0.00 0.00 83 1009.8
20260505150416 74 184 8.0 10.0 0.00 0.00 0.00 83 1009.7
20260505140346 72 192 8.0 11.0 0.00 0.00 0.00 85 1009.6
20260505130309 71 194 5.0 8.0 0.00 0.00 0.00 86 1009.3
20260505124759 71 182 11.0 14.0 0.00 0.00 0.00 86 1009.1
20260505124256 71 253 7.0 11.0 0.00 0.00 0.00 86 1008.9
20260505123752 71 107 5.0 9.0 0.00 0.00 0.00 86 1009.0
20260505123249 71 222 4.0 9.0 0.00 0.00 0.00 86 1008.6
20260505122745 71 192 6.0 14.0 0.00 0.00 0.00 86 1008.6
20260505122242 71 191 6.0 13.0 0.00 0.00 0.00 86 1008.7
20260505121739 71 195 9.0 14.0 0.00 0.00 0.00 86 1008.6
20260505121236 71 196 5.0 9.0 0.00 0.00 0.00 86 1008.4
20260505120732 71 205 7.0 14.0 0.00 0.00 0.00 85 1008.4
20260505120228 71 200 5.0 11.0 0.00 0.00 0.00 85 1008.3
20260505115727 71 208 6.0 10.0 0.00 0.00 0.00 85 1008.6
20260505115225 71 210 7.0 10.0 0.00 0.00 0.00 86 1008.2
20260505114722 71 206 3.0 13.0 0.00 0.00 0.00 85 1008.3
20260505114218 71 190 3.0 13.0 0.00 0.00 0.00 85 1008.2
20260505113715 71 220 5.0 13.0 0.00 0.00 0.00 85 1008.2
20260505113211 71 156 6.0 10.0 0.00 0.00 0.00 85 1008.2
20260505112708 71 201 8.0 10.0 0.00 0.00 0.00 86 1008.2
20260505112206 71 191 6.0 8.0 0.00 0.00 0.00 86 1008.5
20260505111705 71 200 3.0 6.0 0.00 0.00 0.00 86 1008.1
20260505111201 71 215 6.0 9.0 0.00 0.00 0.00 86 1008.4
20260505110657 71 210 9.0 14.0 0.00 0.00 0.00 86 1008.5
20260505110155 71 200 4.0 9.0 0.00 0.00 0.00 86 1008.4
20260505102131 71 181 11.0 15.0 0.00 0.00 0.00 86 1008.5
20260505101629 71 177 9.0 11.0 0.00 0.00 0.00 86 1008.6
20260505101125 71 225 4.0 11.0 0.00 0.00 0.00 86 1008.5
20260505100621 71 210 8.0 13.0 0.00 0.00 0.00 86 1008.2
20260505100119 71 166 6.0 13.0 0.00 0.00 0.00 86 1008.1
20260505095614 71 195 6.0 10.0 0.00 0.00 0.00 86 1008.4
20260505095111 71 206 6.0 8.0 0.00 0.00 0.00 85 1008.4
20260505094608 71 230 5.0 14.0 0.00 0.00 0.00 85 1008.5
20260505094104 71 171 6.0 9.0 0.00 0.00 0.00 86 1008.5
20260505093600 71 245 4.0 14.0 0.00 0.00 0.00 86 1008.5
20260505093058 71 198 8.0 10.0 0.00 0.00 0.00 86 1008.4
20260505092555 71 245 5.0 9.0 0.00 0.00 0.00 86 1008.6
20260505092054 71 166 5.0 8.0 0.00 0.00 0.00 85 1008.6
20260505091550 71 180 7.0 11.0 0.00 0.00 0.00 85 1008.6
20260505091049 71 231 11.0 13.0 0.00 0.00 0.00 85 1008.6
20260505090546 71 196 4.0 11.0 0.00 0.00 0.00 85 1008.6
20260505090044 71 175 10.0 13.0 0.00 0.00 0.00 85 1008.7
20260505085541 71 190 4.0 16.0 0.00 0.00 0.00 85 1008.5
20260505085039 71 197 6.0 16.0 0.00 0.00 0.00 85 1008.4
20260505084537 71 164 6.0 15.0 0.00 0.00 0.00 85 1008.4
20260505084035 71 227 9.0 11.0 0.00 0.00 0.00 85 1008.5
20260505083532 71 199 10.0 15.0 0.00 0.00 0.00 85 1008.6
20260505083028 71 150 10.0 15.0 0.00 0.00 0.00 85 1008.6
20260505082524 71 237 7.0 10.0 0.00 0.00 0.00 85 1008.7
20260505082021 71 175 10.0 16.0 0.00 0.00 0.00 85 1008.8
20260505081518 71 181 6.0 17.0 0.00 0.00 0.00 85 1008.9
20260505081015 71 199 8.0 13.0 0.00 0.00 0.00 85 1009.0
20260505080511 71 191 6.0 7.0 0.00 0.00 0.00 85 1009.0
20260505080007 71 244 9.0 16.0 0.00 0.00 0.00 84 1009.2
20260505075504 71 197 9.0 13.0 0.00 0.00 0.00 84 1009.1
20260505075000 71 147 9.0 16.0 0.00 0.00 0.00 84 1009.4
20260505074458 71 174 5.0 17.0 0.00 0.00 0.00 84 1009.4